Home > Weather > Bad Radkersburg > Past weeks

Flag for Austria Past Weather in Bad Radkersburg, Styria, Austria — Yesterday and Last 2 Weeks

Now
68 °F

Mild.


Feels Like: 68 °F
Forecast: 68 / 79 °F
Wind: 1 mph from Northwest

Location: Murska Sobota

Current Time: Jul 24, 2016 at 4:54:48 AM

Latest Report: Jul 24, 2016 at 4:00 AM


Visibility: N/A

Pressure: 29.98 "Hg

Humidity: 95%

Dew Point: 66 °F

Location of Bad RadkersburgLocation

Past Weather in Bad Radkersburg — Graph

°F

Bad Radkersburg Temperature Yesterday

Maximum temperature yesterday: 87 °F (at 4:00 PM)
Minimum temperature yesterday: 66 °F (at 6:00 AM)
Average temperature yesterday: 77 °F

High & Low Weather Summary for the Past Weeks

 TemperatureHumidityPressure
High90 °F (Jul 11, 4:00 PM)99% (Jul 13, 8:00 PM)30.17 "Hg (Jul 13, 8:00 PM)
Low55 °F (Jul 15, 6:00 AM)37% (Jul 14, 5:00 PM)29.70 "Hg (Jul 14, 5:00 AM)
Average72 °F71%30.00 "Hg
* Reported Jul 9 3:00 AM — Jul 24 3:00 AM, Bad Radkersburg, Weather by CustomWeather, © 2016

Note: Actual official high and low records may vary slightly from our data, if they occured in-between our weather recording intervals... More about our weather records

Advertising

Bad Radkersburg Weather History for the Previous 24 Hours

Scroll right to see more
 ConditionsComfort  
Time TempWeatherWind HumidityBarometerVisibility
3:00 AM
Sun, Jul 24
69 °FMild.1 mph94%29.99 "HgN/A
2:00 AM70 °FMild.1 mph92%29.98 "HgN/A
1:00 AM71 °FMild.1 mph91%29.98 "HgN/A
12:00 AM73 °FMild.1 mph89%29.97 "HgN/A
11:00 PM
Sat, Jul 23
74 °FMild.1 mph86%29.98 "HgN/A
10:00 PM76 °FMild.1 mph83%29.97 "HgN/A
9:00 PM79 °FWarm.1 mph76%29.96 "HgN/A
8:00 PM83 °FWarm.1 mph63%29.94 "HgN/A
7:00 PM85 °FWarm.2 mph60%29.95 "HgN/A
6:00 PM87 °FWarm.2 mph55%29.95 "HgN/A
5:00 PM87 °FWarm.1 mph53%29.96 "HgN/A
4:00 PM87 °FWarm.2 mph55%29.96 "HgN/A
3:00 PM86 °FScattered clouds.1 mph52%29.98 "Hg12 mi
2:00 PM85 °FWarm.2 mph57%29.98 "HgN/A
1:00 PM83 °FWarm.1 mph61%29.99 "HgN/A
12:00 PM81 °FWarm.2 mph63%30.00 "HgN/A
11:00 AM79 °FWarm.1 mph71%30.00 "HgN/A
10:00 AM76 °FMild.1 mph78%29.99 "HgN/A
9:00 AM74 °FMild.1 mph81%30.00 "HgN/A
8:00 AM70 °FPartly sunny.1 mph90%29.99 "Hg6 mi
7:00 AM68 °FMild.1 mph94%29.99 "HgN/A
6:00 AM66 °FMild.1 mph96%29.98 "HgN/A
5:00 AM66 °FMild.1 mph95%29.98 "HgN/A
4:00 AM67 °FMild.1 mph93%29.98 "HgN/A
Weather by CustomWeather, © 2016

See weather overviewHow to use our weather pages